When you browse on this site, cookies collect data to enhance your experience and personalize the content and advertising you see.
Visit our Privacy Policy to learn more. By continuing to use the site, you agree to this use of cookies and data.
  • In Portugal
  • List of Countries
  • For 7 days
  • Water Temperature
  • Satellite Maps
  • Weather Map
  • Weather Widgets
  • user-avatar
    Login

    Hourly Weather Smecino

    Today, 20 May, Monday

    Time Temperature Precipitation Wind Pressure Humidity
    00:00 +15°C° 0.4 mm 2 mps 743 mmHg 96%
    01:00 +15°C° 0.4 mm 2 mps 742 mmHg 96%
    02:00 +15°C° 0 mm 2 mps 742 mmHg 96%
    03:00 +15°C° 0 mm 2 mps 742 mmHg 96%
    04:00 +15°C° 0 mm 2 mps 742 mmHg 96%
    05:00 +16°C° 0 mm 2 mps 742 mmHg 93%
    06:00 +17°C° 0 mm 2 mps 742 mmHg 91%
    07:00 +19°C° 0 mm 3 mps 742 mmHg 88%
    08:00 +21°C° 0 mm 3 mps 742 mmHg 78%
    09:00 +22°C° 0 mm 4 mps 742 mmHg 68%
    10:00 +25°C° 0 mm 4 mps 742 mmHg 58%
    11:00 +26°C° 0 mm 4 mps 742 mmHg 54%
    12:00 +27°C° 0 mm 4 mps 742 mmHg 51%
    13:00 +28°C° 0 mm 4 mps 742 mmHg 47%
    14:00 +26°C° 0.6 mm 4 mps 741 mmHg 58%
    15:00 +23°C° 0.6 mm 4 mps 741 mmHg 69%
    16:00 +21°C° 0.6 mm 4 mps 741 mmHg 80%
    17:00 +21°C° 0.1 mm 3 mps 741 mmHg 82%
    18:00 +20°C° 0.1 mm 3 mps 741 mmHg 84%
    19:00 +20°C° 0.1 mm 3 mps 741 mmHg 87%
    20:00 +19°C° 0 mm 3 mps 741 mmHg 90%
    21:00 +18°C° 0 mm 3 mps 741 mmHg 93%
    22:00 +17°C° 0 mm 2 mps 741 mmHg 96%
    23:00 +17°C° 0 mm 2 mps 741 mmHg 96%

    Tomorrow, 21 May, Tuesday

    Time Temperature Precipitation Wind Pressure Humidity
    00:00 +16°C° 0 mm 2 mps 741 mmHg 96%
    01:00 +16°C° 0 mm 2 mps 741 mmHg 96%
    02:00 +16°C° 0 mm 1 mps 741 mmHg 96%
    03:00 +16°C° 0 mm 1 mps 741 mmHg 96%
    04:00 +15°C° 0 mm 1 mps 741 mmHg 96%
    05:00 +18°C° 0 mm 1 mps 741 mmHg 91%
    06:00 +19°C° 0 mm 1 mps 741 mmHg 86%
    07:00 +21°C° 0 mm 1 mps 742 mmHg 82%
    08:00 +20°C° 0 mm 0 mps 742 mmHg 76%
    09:00 +21°C° 0 mm 0 mps 742 mmHg 70%
    10:00 +22°C° 0 mm 0 mps 742 mmHg 65%
    11:00 +24°C° 0.1 mm 1 mps 742 mmHg 62%
    12:00 +25°C° 0.1 mm 1 mps 742 mmHg 60%
    13:00 +25°C° 0.1 mm 2 mps 742 mmHg 58%
    14:00 +24°C° 0.7 mm 2 mps 742 mmHg 64%
    15:00 +24°C° 0.7 mm 3 mps 742 mmHg 69%
    16:00 +22°C° 0.7 mm 3 mps 742 mmHg 75%
    17:00 +21°C° 0.3 mm 3 mps 742 mmHg 79%
    18:00 +20°C° 0.3 mm 2 mps 742 mmHg 83%
    19:00 +19°C° 0.3 mm 2 mps 742 mmHg 87%
    20:00 +18°C° 0.1 mm 2 mps 742 mmHg 89%
    21:00 +16°C° 0.1 mm 1 mps 742 mmHg 92%
    22:00 +15°C° 0.1 mm 1 mps 742 mmHg 95%
    23:00 +15°C° 0 mm 1 mps 742 mmHg 95%

    Day after tomorrow, 22 May, Wednesday

    Time Temperature Precipitation Wind Pressure Humidity
    00:00 +15°C° 0 mm 1 mps 742 mmHg 96%
    01:00 +14°C° 0 mm 1 mps 742 mmHg 96%
    02:00 +14°C° 0 mm 1 mps 742 mmHg 97%
    03:00 +14°C° 0 mm 1 mps 742 mmHg 97%
    04:00 +14°C° 0 mm 2 mps 742 mmHg 98%
    05:00 +15°C° 0.1 mm 2 mps 742 mmHg 96%
    06:00 +16°C° 0.1 mm 2 mps 742 mmHg 94%
    07:00 +17°C° 0.1 mm 2 mps 742 mmHg 92%
    08:00 +19°C° 0 mm 2 mps 743 mmHg 85%
    09:00 +20°C° 0 mm 3 mps 743 mmHg 79%
    10:00 +21°C° 0 mm 3 mps 743 mmHg 72%
    11:00 +22°C° 0 mm 3 mps 743 mmHg 67%
    12:00 +23°C° 0 mm 4 mps 744 mmHg 62%
    13:00 +23°C° 0 mm 4 mps 744 mmHg 58%
    14:00 +23°C° 0 mm 4 mps 744 mmHg 59%
    15:00 +22°C° 0 mm 4 mps 744 mmHg 60%
    16:00 +21°C° 0 mm 4 mps 744 mmHg 62%
    17:00 +20°C° 0 mm 4 mps 744 mmHg 68%
    18:00 +18°C° 0 mm 4 mps 744 mmHg 75%
    19:00 +15°C° 0 mm 4 mps 744 mmHg 81%
    20:00 +14°C° 0 mm 4 mps 745 mmHg 86%
    21:00 +13°C° 0 mm 3 mps 745 mmHg 92%
    22:00 +12°C° 0 mm 3 mps 746 mmHg 97%
    23:00 +12°C° 0 mm 4 mps 746 mmHg 91%

    23 May, Thursday

    Time Temperature Precipitation Wind Pressure Humidity
    00:00 +10°C° 0 mm 5 mps 746 mmHg 85%
    01:00 +10°C° 0 mm 5 mps 747 mmHg 79%
    02:00 +10°C° 0 mm 6 mps 747 mmHg 77%
    03:00 +9°C° 0 mm 6 mps 747 mmHg 74%
    04:00 +8°C° 0 mm 6 mps 748 mmHg 72%
    05:00 +8°C° 0 mm 6 mps 748 mmHg 73%
    06:00 +8°C° 0 mm 6 mps 748 mmHg 75%
    07:00 +8°C° 0 mm 6 mps 749 mmHg 77%
    08:00 +10°C° 0 mm 6 mps 749 mmHg 72%
    09:00 +11°C° 0 mm 6 mps 749 mmHg 68%
    10:00 +13°C° 0 mm 6 mps 750 mmHg 64%
    11:00 +14°C° 0 mm 6 mps 750 mmHg 63%
    12:00 +14°C° 0 mm 6 mps 750 mmHg 63%
    13:00 +14°C° 0 mm 6 mps 750 mmHg 63%
    14:00 +14°C° 0 mm 6 mps 750 mmHg 62%
    15:00 +14°C° 0 mm 6 mps 750 mmHg 62%
    16:00 +14°C° 0 mm 6 mps 749 mmHg 62%
    17:00 +13°C° 0 mm 5 mps 749 mmHg 66%
    18:00 +12°C° 0 mm 4 mps 749 mmHg 70%
    19:00 +11°C° 0 mm 3 mps 749 mmHg 74%
    20:00 +10°C° 0 mm 3 mps 749 mmHg 78%
    21:00 +9°C° 0 mm 2 mps 749 mmHg 83%
    22:00 +8°C° 0 mm 2 mps 749 mmHg 88%
    23:00 +8°C° 0 mm 2 mps 749 mmHg 88%

    24 May, Friday

    Time Temperature Precipitation Wind Pressure Humidity
    00:00 +7°C° 0 mm 2 mps 749 mmHg 88%
    01:00 +7°C° 0 mm 2 mps 749 mmHg 89%
    02:00 +7°C° 0 mm 3 mps 748 mmHg 90%
    03:00 +7°C° 0 mm 3 mps 748 mmHg 90%
    04:00 +8°C° 0 mm 3 mps 748 mmHg 91%
    05:00 +8°C° 0 mm 4 mps 748 mmHg 85%
    06:00 +11°C° 0 mm 4 mps 748 mmHg 79%
    07:00 +12°C° 0 mm 5 mps 748 mmHg 73%
    08:00 +14°C° 0 mm 5 mps 747 mmHg 68%
    09:00 +15°C° 0 mm 5 mps 747 mmHg 64%
    10:00 +16°C° 0 mm 6 mps 747 mmHg 60%
    11:00 +17°C° 0 mm 6 mps 747 mmHg 58%
    12:00 +19°C° 0 mm 5 mps 746 mmHg 55%
    13:00 +19°C° 0 mm 5 mps 746 mmHg 53%
    14:00 +19°C° 0.2 mm 5 mps 746 mmHg 55%
    15:00 +19°C° 0.2 mm 5 mps 745 mmHg 57%
    16:00 +19°C° 0.2 mm 4 mps 745 mmHg 60%
    17:00 +18°C° 0.1 mm 3 mps 745 mmHg 66%
    18:00 +17°C° 0.1 mm 2 mps 745 mmHg 72%
    19:00 +15°C° 0.1 mm 1 mps 744 mmHg 78%
    20:00 +15°C° 0 mm 2 mps 744 mmHg 81%
    21:00 +14°C° 0 mm 2 mps 744 mmHg 84%
    22:00 +13°C° 0 mm 2 mps 744 mmHg 87%
    23:00 +13°C° 0.3 mm 2 mps 744 mmHg 90%

    25 May, Saturday

    Time Temperature Precipitation Wind Pressure Humidity
    00:00 +13°C° 0.3 mm 2 mps 744 mmHg 92%
    01:00 +13°C° 0.3 mm 2 mps 744 mmHg 95%
    02:00 +12°C° 0.1 mm 2 mps 744 mmHg 96%
    03:00 +12°C° 0.1 mm 2 mps 744 mmHg 97%
    04:00 +10°C° 0.1 mm 2 mps 744 mmHg 98%
    05:00 +12°C° 0 mm 2 mps 744 mmHg 95%
    06:00 +13°C° 0 mm 2 mps 744 mmHg 93%
    07:00 +13°C° 0 mm 3 mps 745 mmHg 90%
    08:00 +14°C° 0 mm 3 mps 745 mmHg 81%
    09:00 +15°C° 0 mm 4 mps 745 mmHg 71%
    10:00 +17°C° 0 mm 4 mps 746 mmHg 62%
    11:00 +17°C° 0 mm 4 mps 746 mmHg 60%
    12:00 +17°C° 0 mm 5 mps 746 mmHg 59%
    13:00 +17°C° 0 mm 5 mps 746 mmHg 57%
    14:00 +17°C° 0 mm 5 mps 746 mmHg 58%
    15:00 +16°C° 0 mm 5 mps 746 mmHg 60%
    16:00 +16°C° 0 mm 5 mps 747 mmHg 61%
    17:00 +15°C° 0 mm 4 mps 747 mmHg 66%
    18:00 +14°C° 0 mm 3 mps 747 mmHg 71%
    19:00 +14°C° 0 mm 2 mps 747 mmHg 76%
    20:00 +12°C° 0 mm 2 mps 747 mmHg 82%
    21:00 +10°C° 0 mm 2 mps 747 mmHg 87%
    22:00 +9°C° 0 mm 2 mps 747 mmHg 93%
    23:00 +8°C° 0 mm 2 mps 747 mmHg 94%
    Show more